• în Republica Moldova
  • Lista ţărilor
  • Pe 7 zile
  • Temperatura apei
  • Hartă satelitară
  • Meteo pe hartă
  • Widget-uri
  • user-avatar
    Intrare

    Meteo pe oră la Sumgait

    Astăzi, 22 Ianuarie, Duminică

    Timp Temperatura Precipitaţii Vânt Presiune Umiditate
    00:00 -1°C° 0 mm 2 m/s 745 mmHg 87%
    01:00 -1°C° 0 mm 3 m/s 744 mmHg 86%
    02:00 -1°C° 0 mm 3 m/s 744 mmHg 86%
    03:00 -1°C° 0 mm 3 m/s 744 mmHg 85%
    04:00 -2°C° 0 mm 4 m/s 744 mmHg 84%
    05:00 -2°C° 0 mm 4 m/s 744 mmHg 84%
    06:00 -2°C° 0 mm 4 m/s 744 mmHg 83%
    07:00 -1°C° 0 mm 4 m/s 744 mmHg 78%
    08:00 -1°C° 0 mm 4 m/s 744 mmHg 73%
    09:00 +1°C° 0 mm 3 m/s 744 mmHg 68%
    10:00 +2°C° 0 mm 3 m/s 744 mmHg 62%
    11:00 +4°C° 0 mm 2 m/s 744 mmHg 57%
    12:00 +5°C° 0 mm 2 m/s 744 mmHg 51%
    13:00 +5°C° 0 mm 2 m/s 744 mmHg 48%
    14:00 +5°C° 0 mm 3 m/s 745 mmHg 46%
    15:00 +5°C° 0 mm 3 m/s 745 mmHg 43%
    16:00 +3°C° 0,1 mm 5 m/s 746 mmHg 53%
    17:00 +2°C° 0,1 mm 6 m/s 747 mmHg 62%
    18:00 0°C° 0,1 mm 8 m/s 747 mmHg 72%
    19:00 -1°C° 0,1 mm 8 m/s 748 mmHg 73%
    20:00 -1°C° 0,1 mm 8 m/s 749 mmHg 74%
    21:00 -1°C° 0,1 mm 8 m/s 750 mmHg 76%
    22:00 -2°C° 0 mm 7 m/s 750 mmHg 75%
    23:00 -2°C° 0 mm 6 m/s 750 mmHg 74%

    Mâine, 23 Ianuarie, Luni

    Timp Temperatura Precipitaţii Vânt Presiune Umiditate
    00:00 -1°C° 0 mm 5 m/s 751 mmHg 73%
    01:00 -1°C° 0 mm 4 m/s 751 mmHg 73%
    02:00 0°C° 0 mm 3 m/s 751 mmHg 72%
    03:00 +1°C° 0 mm 2 m/s 751 mmHg 71%
    04:00 -1°C° 0 mm 2 m/s 751 mmHg 72%
    05:00 -1°C° 0 mm 2 m/s 751 mmHg 72%
    06:00 -1°C° 0 mm 3 m/s 751 mmHg 73%
    07:00 0°C° 0 mm 3 m/s 751 mmHg 70%
    08:00 -1°C° 0 mm 4 m/s 751 mmHg 68%
    09:00 0°C° 0 mm 5 m/s 751 mmHg 66%
    10:00 +1°C° 0 mm 5 m/s 751 mmHg 64%
    11:00 +2°C° 0 mm 6 m/s 751 mmHg 61%
    12:00 +3°C° 0 mm 6 m/s 751 mmHg 58%
    13:00 +3°C° 0 mm 5 m/s 750 mmHg 57%
    14:00 +3°C° 0 mm 5 m/s 750 mmHg 56%
    15:00 +5°C° 0 mm 4 m/s 750 mmHg 55%
    16:00 +3°C° 0 mm 4 m/s 750 mmHg 62%
    17:00 +2°C° 0 mm 3 m/s 750 mmHg 69%
    18:00 +1°C° 0 mm 3 m/s 751 mmHg 75%
    19:00 +2°C° 0 mm 2 m/s 751 mmHg 77%
    20:00 +1°C° 0 mm 2 m/s 751 mmHg 79%
    21:00 +2°C° 0 mm 1 m/s 751 mmHg 80%
    22:00 +2°C° 0 mm 1 m/s 751 mmHg 79%
    23:00 +2°C° 0 mm 1 m/s 751 mmHg 77%

    Poimâine, 24 Ianuarie, Marţi

    Timp Temperatura Precipitaţii Vânt Presiune Umiditate
    00:00 +2°C° 0 mm 1 m/s 751 mmHg 76%
    01:00 +1°C° 0 mm 2 m/s 751 mmHg 72%
    02:00 +1°C° 0 mm 2 m/s 751 mmHg 67%
    03:00 0°C° 0 mm 3 m/s 751 mmHg 63%
    04:00 0°C° 0 mm 3 m/s 751 mmHg 61%
    05:00 0°C° 0 mm 3 m/s 751 mmHg 59%
    06:00 -1°C° 0 mm 4 m/s 751 mmHg 57%
    07:00 0°C° 0 mm 4 m/s 751 mmHg 55%
    08:00 +1°C° 0 mm 4 m/s 751 mmHg 53%
    09:00 +2°C° 0 mm 5 m/s 751 mmHg 51%
    10:00 +3°C° 0 mm 5 m/s 750 mmHg 49%
    11:00 +4°C° 0 mm 6 m/s 750 mmHg 46%
    12:00 +5°C° 0 mm 7 m/s 749 mmHg 43%
    13:00 +5°C° 0 mm 7 m/s 749 mmHg 44%
    14:00 +5°C° 0 mm 7 m/s 748 mmHg 44%
    15:00 +5°C° 0 mm 7 m/s 747 mmHg 45%
    16:00 +4°C° 0 mm 7 m/s 747 mmHg 50%
    17:00 +3°C° 0 mm 7 m/s 747 mmHg 56%
    18:00 +2°C° 0 mm 7 m/s 746 mmHg 61%
    19:00 +2°C° 0 mm 7 m/s 746 mmHg 63%
    20:00 0°C° 0 mm 7 m/s 746 mmHg 64%
    21:00 0°C° 0 mm 7 m/s 746 mmHg 66%
    22:00 0°C° 0 mm 7 m/s 745 mmHg 67%
    23:00 0°C° 0 mm 7 m/s 744 mmHg 68%

    25 Ianuarie, Miercuri

    Timp Temperatura Precipitaţii Vânt Presiune Umiditate
    00:00 0°C° 0 mm 7 m/s 744 mmHg 69%
    01:00 0°C° 0 mm 7 m/s 743 mmHg 66%
    02:00 0°C° 0 mm 7 m/s 743 mmHg 63%
    03:00 -1°C° 0 mm 7 m/s 742 mmHg 60%
    04:00 -1°C° 0 mm 7 m/s 742 mmHg 57%
    05:00 -1°C° 0 mm 7 m/s 741 mmHg 55%
    06:00 -1°C° 0 mm 6 m/s 741 mmHg 52%
    07:00 +1°C° 0 mm 6 m/s 741 mmHg 49%
    08:00 +1°C° 0 mm 6 m/s 741 mmHg 45%
    09:00 +2°C° 0 mm 6 m/s 741 mmHg 42%
    10:00 +3°C° 0 mm 7 m/s 740 mmHg 38%
    11:00 +5°C° 0 mm 7 m/s 740 mmHg 34%
    12:00 +6°C° 0 mm 7 m/s 739 mmHg 30%
    13:00 +6°C° 0 mm 7 m/s 739 mmHg 30%
    14:00 +7°C° 0 mm 6 m/s 738 mmHg 31%
    15:00 +7°C° 0 mm 5 m/s 737 mmHg 31%
    16:00 +6°C° 0 mm 5 m/s 737 mmHg 37%
    17:00 +4°C° 0 mm 4 m/s 737 mmHg 43%
    18:00 +3°C° 0 mm 3 m/s 737 mmHg 50%
    19:00 +3°C° 0 mm 3 m/s 737 mmHg 51%
    20:00 +3°C° 0 mm 2 m/s 737 mmHg 52%
    21:00 +3°C° 0 mm 2 m/s 736 mmHg 54%
    22:00 +3°C° 0 mm 2 m/s 736 mmHg 53%
    23:00 +3°C° 0 mm 2 m/s 736 mmHg 52%

    26 Ianuarie, Joi

    Timp Temperatura Precipitaţii Vânt Presiune Umiditate
    00:00 +2°C° 0 mm 2 m/s 735 mmHg 51%
    01:00 +2°C° 0 mm 2 m/s 735 mmHg 52%
    02:00 +2°C° 0 mm 2 m/s 735 mmHg 53%
    03:00 +2°C° 0 mm 2 m/s 735 mmHg 54%
    04:00 +2°C° 0 mm 2 m/s 735 mmHg 58%
    05:00 +1°C° 0 mm 3 m/s 735 mmHg 61%
    06:00 +1°C° 0 mm 3 m/s 735 mmHg 65%
    07:00 +1°C° 0 mm 3 m/s 735 mmHg 66%
    08:00 +2°C° 0 mm 3 m/s 736 mmHg 66%
    09:00 +3°C° 0 mm 3 m/s 736 mmHg 67%
    10:00 +4°C° 0 mm 4 m/s 736 mmHg 64%
    11:00 +4°C° 0 mm 4 m/s 736 mmHg 62%
    12:00 +5°C° 0 mm 5 m/s 736 mmHg 60%
    13:00 +4°C° 0 mm 6 m/s 737 mmHg 62%
    14:00 +4°C° 0 mm 7 m/s 737 mmHg 64%
    15:00 +4°C° 0 mm 8 m/s 737 mmHg 66%
    16:00 +2°C° 0 mm 8 m/s 738 mmHg 69%
    17:00 +1°C° 0 mm 8 m/s 738 mmHg 72%
    18:00 0°C° 0 mm 9 m/s 739 mmHg 75%
    19:00 0°C° 0 mm 9 m/s 739 mmHg 74%
    20:00 0°C° 0 mm 8 m/s 740 mmHg 73%
    21:00 0°C° 0 mm 8 m/s 741 mmHg 71%
    22:00 0°C° 0 mm 8 m/s 741 mmHg 72%
    23:00 0°C° 0 mm 8 m/s 741 mmHg 73%

    27 Ianuarie, Vineri

    Timp Temperatura Precipitaţii Vânt Presiune Umiditate
    00:00 0°C° 0 mm 7 m/s 741 mmHg 73%
    01:00 -1°C° 0 mm 7 m/s 742 mmHg 75%
    02:00 -1°C° 0 mm 7 m/s 742 mmHg 76%
    03:00 -1°C° 0 mm 6 m/s 742 mmHg 77%
    04:00 -1°C° 0 mm 6 m/s 743 mmHg 78%
    05:00 -2°C° 0 mm 6 m/s 743 mmHg 79%
    06:00 -2°C° 0 mm 6 m/s 743 mmHg 80%
    07:00 -2°C° 0 mm 7 m/s 744 mmHg 78%
    08:00 -1°C° 0 mm 7 m/s 744 mmHg 77%
    09:00 -1°C° 0 mm 7 m/s 745 mmHg 75%
    10:00 -1°C° 0 mm 7 m/s 745 mmHg 73%
    11:00 0°C° 0 mm 7 m/s 744 mmHg 71%
    12:00 0°C° 0 mm 7 m/s 744 mmHg 69%
    13:00 0°C° 0 mm 7 m/s 744 mmHg 69%
    14:00 0°C° 0 mm 7 m/s 744 mmHg 70%
    15:00 0°C° 0 mm 7 m/s 744 mmHg 71%
    16:00 +1°C° 0 mm 6 m/s 744 mmHg 74%
    17:00 -1°C° 0 mm 6 m/s 744 mmHg 77%
    18:00 0°C° 0 mm 5 m/s 744 mmHg 80%
    19:00 0°C° 0 mm 5 m/s 744 mmHg 80%
    20:00 0°C° 0 mm 5 m/s 745 mmHg 80%
    21:00 0°C° 0 mm 5 m/s 745 mmHg 80%
    22:00 0°C° 0 mm 5 m/s 745 mmHg 81%
    23:00 0°C° 0 mm 4 m/s 744 mmHg 81%
    Arată mai mult